This is the latest recevied weather packets stored in our database for station/object KI6AOK. If no packets are shown the sender has not sent any weather packets the latest 10 day(s).
| Time | Temp. | Humidity | Pressure | Rain* | Wind** | Luminosity | Snow |
|---|---|---|---|---|---|---|---|
| 1777689259 | 16.67° C | 78% | 1012.9 hPa | 0 mm | - | 2 W/m² | - |
| 1777688956 | 16.67° C | 78% | 1012.9 hPa | 0 mm | - | 5 W/m² | - |
| 1777688652 | 16.67° C | 78% | 1012.8 hPa | 0 mm | - | 7 W/m² | - |
| 1777688349 | 17.22° C | 77% | 1012.8 hPa | 0 mm | - | 11 W/m² | - |
| 1777688047 | 17.22° C | 77% | 1012.7 hPa | 0 mm | - | 15 W/m² | - |
| 1777687744 | 17.22° C | 76% | 1012.7 hPa | 0 mm | - | 19 W/m² | - |
| 1777687442 | 17.78° C | 75% | 1012.5 hPa | 0 mm | - | 23 W/m² | - |
| 1777687138 | 17.78° C | 74% | 1012.6 hPa | 0 mm | - | 27 W/m² | - |
| 1777686835 | 18.33° C | 73% | 1012.4 hPa | 0 mm | - | 31 W/m² | - |
| 1777686532 | 18.89° C | 72% | 1012.4 hPa | 0 mm | - | 36 W/m² | - |
| 1777686229 | 18.89° C | 70% | 1012.2 hPa | 0 mm | - | 44 W/m² | - |
| 1777685925 | 19.44° C | 69% | 1012.1 hPa | 0 mm | - | 49 W/m² | - |
| 1777685621 | 19.44° C | 68% | 1012.1 hPa | 0 mm | - | 56 W/m² | - |
| 1777685318 | 20° C | 67% | 1012.2 hPa | 0 mm | - | 63 W/m² | - |
| 1777685016 | 20° C | 66% | 1012.1 hPa | 0 mm | - | 71 W/m² | - |
| 1777684713 | 20° C | 65% | 1012 hPa | 0 mm | - | 80 W/m² | - |
| 1777684409 | 20.56° C | 64% | 1012 hPa | 0 mm | - | 90 W/m² | - |
| 1777684107 | 21.11° C | 63% | 1012 hPa | 0 mm | - | 100 W/m² | - |
| 1777683803 | 21.67° C | 61% | 1011.9 hPa | 0 mm | - | 112 W/m² | - |
| 1777683500 | 21.67° C | 61% | 1012 hPa | 0 mm | - | 123 W/m² | - |
| 1777683198 | 21.67° C | 60% | 1011.8 hPa | 0 mm | - | 135 W/m² | - |
| 1777682895 | 21.67° C | 60% | 1011.8 hPa | 0 mm | - | 149 W/m² | - |
| 1777682590 | 21.67° C | 60% | 1011.7 hPa | 0 mm | - | 163 W/m² | - |
| 1777682289 | 22.22° C | 60% | 1011.7 hPa | 0 mm | - | 178 W/m² | - |
| 1777681985 | 22.22° C | 58% | 1011.7 hPa | 0 mm | - | 195 W/m² | - |
* Rain latest hour (hover to see other rain measurements)
** Current wind speed in m/s (hover to see current wind gust speed)